N1IER Weather Reports


time (UTC)temp
C
wind
direction
speed
KPH
gust
KPH
rain 1hr
cm
rain 24hr
cm
rain mn
cm
humidity
%
barometer
mb
20260507050026 12 216 0.0 3.2 0.00 0.46 0.00 93 1006.9
20260507044527 12 230 0.0 6.4 0.00 0.46 0.00 93 1007.0
20260507043014 12 211 1.6 6.4 0.00 0.46 0.00 93 1006.7
20260507041517 12 205 0.0 4.8 0.00 0.46 0.00 93 1006.6
20260507040024 12 213 0.0 4.8 0.00 0.46 0.00 93 1006.6
20260507034533 12 187 0.0 4.8 0.00 0.46 0.46 93 1006.8
20260507033009 12 205 1.6 4.8 0.00 0.46 0.46 93 1007.1
20260507031516 12 168 0.0 4.8 0.00 0.46 0.46 93 1006.9
20260507030018 12 215 0.0 4.8 0.00 0.46 0.46 93 1006.8
20260507024525 13 161 1.6 9.7 0.00 0.46 0.46 93 1006.7
20260507023027 13 180 0.0 8.0 0.00 0.46 0.46 93 1006.8
20260507021518 13 206 0.0 8.0 0.00 0.46 0.46 93 1006.9
20260507020017 12 250 1.6 12.9 0.00 0.46 0.46 93 1007.2
20260507014522 12 192 0.0 9.7 0.00 0.46 0.46 93 1007.4
20260507013004 12 218 1.6 12.9 0.00 0.46 0.46 92 1007.6
20260507011510 12 219 1.6 9.7 0.00 0.46 0.46 93 1007.7
20260507010012 13 204 1.6 16.1 0.00 0.46 0.46 93 1007.9
20260507004528 13 189 1.6 9.7 0.00 0.46 0.46 92 1007.7
20260507003027 13 294 1.6 12.9 0.03 0.46 0.46 92 1007.8
20260507001508 13 199 1.6 16.1 0.03 0.46 0.46 92 1007.7
20260507000012 13 184 4.8 14.5 0.05 0.46 0.46 92 1007.7
20260506234523 13 173 6.4 20.9 0.10 0.46 0.46 92 1007.7
20260506233022 13 136 0.0 9.7 0.15 0.43 0.43 92 1007.7
20260506231527 13 286 1.6 11.3 0.25 0.43 0.43 92 1007.7
20260506224526 13 196 1.6 12.9 0.25 0.36 0.36 92 1007.5
20260506223018 13 175 3.2 16.1 0.20 0.28 0.28 91 1007.4
20260506221522 13 210 3.2 14.5 0.10 0.18 0.18 91 1007.7
20260506220026 13 126 1.6 27.4 0.05 0.10 0.10 91 1008.2
20260506214523 13 192 3.2 17.7 0.05 0.10 0.10 90 1008.1
20260506213014 13 239 8.0 19.3 0.03 0.08 0.08 90 1008.2
20260506211527 14 188 4.8 24.1 0.03 0.08 0.08 89 1008.3
20260506210024 15 207 3.2 12.9 0.03 0.05 0.05 87 1008.5
20260506204526 15 254 3.2 25.7 0.05 0.05 0.05 86 1008.6
20260506203012 15 175 3.2 24.1 0.05 0.05 0.05 86 1008.7
20260506201518 15 180 6.4 14.5 0.05 0.05 0.05 88 1008.7
20260506200021 15 173 6.4 19.3 0.03 0.03 0.03 86 1008.9
20260506194524 15 278 3.2 22.5 0.00 0.00 0.00 83 1009.3
20260506193010 16 248 4.8 19.3 0.00 0.00 0.00 79 1009.1
20260506191523 16 233 6.4 30.6 0.00 0.00 0.00 78 1009.3
20260506190021 16 174 3.2 20.9 0.00 0.00 0.00 78 1009.4
20260506184531 16 186 9.7 35.4 0.00 0.00 0.00 77 1009.3
20260506183026 17 263 4.8 22.5 0.00 0.00 0.00 77 1009.6
20260506181524 17 209 8.0 29.0 0.00 0.00 0.00 76 1009.6
20260506180024 17 287 8.0 35.4 0.00 0.00 0.00 76 1009.8
20260506174521 17 183 8.0 29.0 0.00 0.00 0.00 74 1009.8
20260506173023 18 252 4.8 32.2 0.00 0.00 0.00 74 1010.3
20260506171536 18 306 6.4 19.3 0.00 0.00 0.00 74 1009.9
20260506170015 18 242 6.4 24.1 0.00 0.00 0.00 75 1010.3
20260506164528 18 109 6.4 17.7 0.00 0.00 0.00 75 1010.7
20260506163023 18 209 4.8 19.3 0.00 0.00 0.00 74 1010.9
20260506161509 18 160 6.4 22.5 0.00 0.00 0.00 73 1011.1
20260506160012 18 330 6.4 32.2 0.00 0.00 0.00 72 1011.2
20260506154529 18 288 11.3 25.7 0.00 0.00 0.00 71 1011.2
20260506153022 20 130 3.2 14.5 0.00 0.00 0.00 72 1011.3
20260506151535 18 256 9.7 33.8 0.00 0.00 0.00 75 1011.3
20260506150008 18 192 4.8 22.5 0.00 0.00 0.00 74 1011.5
20260506144527 17 190 6.4 25.7 0.00 0.00 0.00 76 1011.2
20260506143020 17 223 8.0 27.4 0.00 0.00 0.00 75 1011.3
20260506141522 17 280 6.4 27.4 0.00 0.00 0.00 75 1011.1
20260506140029 17 217 6.4 20.9 0.00 0.00 0.00 75 1011.4
20260506134510 17 182 4.8 20.9 0.00 0.00 0.00 78 1011.6
20260506133038 17 231 4.8 20.9 0.00 0.00 0.00 78 1011.9
20260506131531 16 185 6.4 25.7 0.00 0.00 0.00 80 1011.8
20260506130023 16 205 8.0 20.9 0.00 0.00 0.00 80 1011.8
20260506124509 16 175 4.8 16.1 0.00 0.00 0.00 82 1011.6
20260506123014 15 212 4.8 33.8 0.00 0.00 0.00 83 1011.8
20260506121530 15 169 3.2 16.1 0.00 0.00 0.00 85 1011.9
20260506120035 15 167 6.4 19.3 0.00 0.00 0.00 85 1012.0
20260506114528 15 199 0.0 22.5 0.00 0.00 0.00 85 1012.0
20260506113012 14 286 4.8 19.3 0.00 0.00 0.00 86 1012.2
20260506111516 14 234 4.8 19.3 0.00 0.00 0.00 86 1012.3
20260506110022 14 266 4.8 17.7 0.00 0.00 0.00 86 1012.1
20260506104526 14 211 3.2 17.7 0.00 0.00 0.00 87 1011.9
20260506103031 13 194 3.2 16.1 0.00 0.00 0.00 87 1012.0
20260506101517 14 218 3.2 24.1 0.00 0.00 0.00 87 1011.8
20260506100028 14 152 8.0 20.9 0.00 0.00 0.00 88 1011.7
20260506094525 13 155 3.2 14.5 0.00 0.00 0.00 88 1011.5
20260506093026 13 184 4.8 25.7 0.00 0.00 0.00 88 1011.8
20260506091528 13 176 6.4 24.1 0.00 0.00 0.00 88 1011.7
20260506090017 13 171 3.2 14.5 0.00 0.00 0.00 88 1012.0
20260506084525 13 189 6.4 17.7 0.00 0.00 0.00 88 1012.1
20260506083028 13 196 3.2 11.3 0.00 0.00 0.00 87 1012.3
20260506081528 13 197 4.8 14.5 0.00 0.00 0.00 87 1012.3
20260506073023 14 180 4.8 17.7 0.00 0.00 0.00 86 1012.1
20260506071526 14 192 6.4 20.9 0.00 0.00 0.00 86 1012.1
20260506061526 14 162 4.8 24.1 0.00 0.00 0.00 85 1011.8